When you browse on this site, cookies collect data to enhance your experience and personalize the content and advertising you see.
Visit our Privacy Policy to learn more. By continuing to use the site, you agree to this use of cookies and data.
  • In Czech Republic
  • List of Countries
  • For 7 days
  • Water Temperature
  • Satellite Maps
  • Weather Map
  • Weather Widgets
  • user-avatar
    Login

    Hourly Weather Gold Coast

    Today, 16 January, Wednesday

    Time Temperature Precipitation Wind Pressure Humidity
    00:00 +23°C° 0 mm 1 mps 757 mmHg 86%
    01:00 +23°C° 0 mm 1 mps 756 mmHg 87%
    02:00 +22°C° 0 mm 1 mps 756 mmHg 87%
    03:00 +22°C° 0 mm 1 mps 756 mmHg 88%
    04:00 +22°C° 0 mm 1 mps 756 mmHg 88%
    05:00 +24°C° 0 mm 1 mps 756 mmHg 82%
    06:00 +25°C° 0 mm 1 mps 756 mmHg 76%
    07:00 +26°C° 0 mm 1 mps 757 mmHg 69%
    08:00 +28°C° 0 mm 1 mps 757 mmHg 61%
    09:00 +30°C° 0 mm 2 mps 757 mmHg 52%
    10:00 +32°C° 0 mm 2 mps 757 mmHg 43%
    11:00 +34°C° 0 mm 3 mps 756 mmHg 41%
    12:00 +35°C° 0 mm 3 mps 756 mmHg 38%
    13:00 +35°C° 0 mm 4 mps 755 mmHg 36%
    14:00 +34°C° 0 mm 4 mps 755 mmHg 41%
    15:00 +33°C° 0 mm 5 mps 755 mmHg 46%
    16:00 +32°C° 0 mm 4 mps 754 mmHg 54%
    17:00 +29°C° 0 mm 4 mps 755 mmHg 63%
    18:00 +28°C° 0 mm 4 mps 755 mmHg 72%
    19:00 +26°C° 0 mm 4 mps 755 mmHg 81%
    20:00 +26°C° 0 mm 4 mps 756 mmHg 82%
    21:00 +26°C° 0 mm 3 mps 756 mmHg 83%
    22:00 +26°C° 0 mm 3 mps 756 mmHg 84%
    23:00 +26°C° 0.1 mm 3 mps 756 mmHg 85%

    Tomorrow, 17 January, Thursday

    Time Temperature Precipitation Wind Pressure Humidity
    00:00 +25°C° 0.1 mm 3 mps 756 mmHg 85%
    01:00 +25°C° 0.1 mm 2 mps 757 mmHg 85%
    02:00 +25°C° 0.1 mm 2 mps 756 mmHg 87%
    03:00 +24°C° 0.1 mm 2 mps 756 mmHg 89%
    04:00 +24°C° 0.1 mm 2 mps 756 mmHg 91%
    05:00 +25°C° 0.1 mm 2 mps 757 mmHg 87%
    06:00 +26°C° 0.1 mm 2 mps 757 mmHg 83%
    07:00 +26°C° 0.1 mm 2 mps 757 mmHg 80%
    08:00 +27°C° 0 mm 2 mps 757 mmHg 74%
    09:00 +28°C° 0 mm 3 mps 757 mmHg 67%
    10:00 +29°C° 0 mm 3 mps 758 mmHg 61%
    11:00 +30°C° 0 mm 3 mps 757 mmHg 58%
    12:00 +30°C° 0 mm 3 mps 757 mmHg 55%
    13:00 +32°C° 0 mm 4 mps 756 mmHg 53%
    14:00 +32°C° 0 mm 4 mps 756 mmHg 52%
    15:00 +32°C° 0 mm 4 mps 756 mmHg 51%
    16:00 +30°C° 0 mm 4 mps 755 mmHg 50%
    17:00 +29°C° 0 mm 4 mps 755 mmHg 57%
    18:00 +27°C° 0 mm 4 mps 756 mmHg 63%
    19:00 +25°C° 0 mm 3 mps 756 mmHg 69%
    20:00 +25°C° 0 mm 3 mps 757 mmHg 73%
    21:00 +24°C° 0 mm 3 mps 757 mmHg 78%
    22:00 +22°C° 0 mm 3 mps 758 mmHg 82%
    23:00 +22°C° 0 mm 3 mps 757 mmHg 82%

    Day after tomorrow, 18 January, Friday

    Time Temperature Precipitation Wind Pressure Humidity
    00:00 +22°C° 0 mm 3 mps 757 mmHg 83%
    01:00 +23°C° 0 mm 2 mps 757 mmHg 84%
    02:00 +23°C° 0 mm 2 mps 757 mmHg 82%
    03:00 +23°C° 0 mm 2 mps 757 mmHg 81%
    04:00 +24°C° 0 mm 2 mps 757 mmHg 80%
    05:00 +25°C° 0 mm 3 mps 758 mmHg 75%
    06:00 +26°C° 0 mm 3 mps 758 mmHg 69%
    07:00 +27°C° 0 mm 3 mps 758 mmHg 64%
    08:00 +28°C° 0 mm 3 mps 758 mmHg 61%
    09:00 +29°C° 0 mm 3 mps 758 mmHg 57%
    10:00 +30°C° 0 mm 3 mps 759 mmHg 53%
    11:00 +31°C° 0 mm 3 mps 758 mmHg 51%
    12:00 +33°C° 0 mm 3 mps 758 mmHg 48%
    13:00 +34°C° 0 mm 4 mps 757 mmHg 46%
    14:00 +33°C° 0 mm 4 mps 757 mmHg 48%
    15:00 +33°C° 0 mm 4 mps 757 mmHg 51%
    16:00 +32°C° 0 mm 4 mps 756 mmHg 53%
    17:00 +30°C° 0 mm 4 mps 757 mmHg 61%
    18:00 +28°C° 0 mm 4 mps 757 mmHg 68%
    19:00 +26°C° 0 mm 3 mps 758 mmHg 75%
    20:00 +26°C° 0 mm 3 mps 758 mmHg 79%
    21:00 +25°C° 0 mm 3 mps 759 mmHg 82%
    22:00 +24°C° 0 mm 3 mps 759 mmHg 86%
    23:00 +25°C° 0 mm 3 mps 759 mmHg 85%

    19 January, Saturday

    Time Temperature Precipitation Wind Pressure Humidity
    00:00 +25°C° 0 mm 3 mps 758 mmHg 85%
    01:00 +25°C° 0 mm 3 mps 758 mmHg 84%
    02:00 +24°C° 0 mm 3 mps 758 mmHg 85%
    03:00 +24°C° 0 mm 2 mps 758 mmHg 86%
    04:00 +24°C° 0 mm 2 mps 758 mmHg 86%
    05:00 +25°C° 0 mm 2 mps 759 mmHg 81%
    06:00 +26°C° 0 mm 1 mps 759 mmHg 76%
    07:00 +27°C° 0 mm 1 mps 759 mmHg 71%
    08:00 +29°C° 0 mm 1 mps 759 mmHg 62%
    09:00 +31°C° 0 mm 2 mps 759 mmHg 54%
    10:00 +34°C° 0 mm 2 mps 759 mmHg 45%
    11:00 +34°C° 0 mm 3 mps 759 mmHg 43%
    12:00 +35°C° 0 mm 3 mps 758 mmHg 40%
    13:00 +36°C° 0 mm 4 mps 758 mmHg 38%
    14:00 +35°C° 0 mm 4 mps 757 mmHg 43%
    15:00 +34°C° 0 mm 4 mps 757 mmHg 48%
    16:00 +33°C° 0 mm 4 mps 756 mmHg 53%
    17:00 +30°C° 0 mm 4 mps 757 mmHg 61%
    18:00 +28°C° 0 mm 4 mps 757 mmHg 69%
    19:00 +26°C° 0 mm 3 mps 757 mmHg 77%
    20:00 +25°C° 0 mm 3 mps 758 mmHg 81%
    21:00 +25°C° 0 mm 2 mps 759 mmHg 85%
    22:00 +24°C° 0 mm 2 mps 759 mmHg 89%
    23:00 +24°C° 0 mm 2 mps 759 mmHg 90%

    20 January, Sunday

    Time Temperature Precipitation Wind Pressure Humidity
    00:00 +23°C° 0 mm 1 mps 759 mmHg 91%
    01:00 +23°C° 0 mm 1 mps 759 mmHg 92%
    02:00 +23°C° 0 mm 1 mps 759 mmHg 93%
    03:00 +23°C° 0 mm 1 mps 759 mmHg 94%
    04:00 +22°C° 0 mm 1 mps 759 mmHg 94%
    05:00 +24°C° 0 mm 1 mps 759 mmHg 88%
    06:00 +25°C° 0 mm 2 mps 760 mmHg 81%
    07:00 +26°C° 0 mm 2 mps 760 mmHg 74%
    08:00 +28°C° 0 mm 2 mps 760 mmHg 66%
    09:00 +30°C° 0 mm 2 mps 760 mmHg 57%
    10:00 +33°C° 0 mm 3 mps 760 mmHg 48%
    11:00 +34°C° 0 mm 3 mps 760 mmHg 46%
    12:00 +34°C° 0 mm 4 mps 759 mmHg 45%
    13:00 +35°C° 0 mm 4 mps 759 mmHg 43%
    14:00 +34°C° 0 mm 4 mps 758 mmHg 46%
    15:00 +33°C° 0 mm 4 mps 758 mmHg 49%
    16:00 +33°C° 0 mm 4 mps 758 mmHg 51%
    17:00 +30°C° 0 mm 3 mps 758 mmHg 60%
    18:00 +28°C° 0 mm 3 mps 758 mmHg 68%
    19:00 +26°C° 0 mm 2 mps 759 mmHg 76%
    20:00 +25°C° 0 mm 2 mps 759 mmHg 80%
    21:00 +25°C° 0 mm 2 mps 759 mmHg 84%
    22:00 +24°C° 0 mm 1 mps 760 mmHg 87%
    23:00 +24°C° 0 mm 1 mps 760 mmHg 88%

    21 January, Monday

    Time Temperature Precipitation Wind Pressure Humidity
    00:00 +24°C° 0 mm 1 mps 759 mmHg 90%
    01:00 +23°C° 0 mm 1 mps 759 mmHg 91%
    02:00 +23°C° 0 mm 1 mps 759 mmHg 91%
    03:00 +23°C° 0 mm 1 mps 759 mmHg 92%
    04:00 +23°C° 0 mm 1 mps 758 mmHg 92%
    05:00 +24°C° 0 mm 1 mps 759 mmHg 86%
    06:00 +26°C° 0 mm 2 mps 759 mmHg 80%
    07:00 +27°C° 0 mm 2 mps 759 mmHg 75%
    08:00 +28°C° 0 mm 2 mps 759 mmHg 69%
    09:00 +30°C° 0 mm 2 mps 759 mmHg 63%
    10:00 +31°C° 0 mm 3 mps 759 mmHg 56%
    11:00 +33°C° 0 mm 3 mps 759 mmHg 54%
    12:00 +33°C° 0 mm 3 mps 758 mmHg 51%
    13:00 +34°C° 0 mm 4 mps 758 mmHg 49%
    14:00 +33°C° 0 mm 4 mps 757 mmHg 52%
    15:00 +33°C° 0 mm 4 mps 757 mmHg 54%
    16:00 +32°C° 0 mm 4 mps 757 mmHg 57%
    17:00 +29°C° 0 mm 4 mps 757 mmHg 65%
    18:00 +28°C° 0 mm 3 mps 758 mmHg 72%
    19:00 +26°C° 0 mm 3 mps 758 mmHg 79%
    20:00 +26°C° 0 mm 3 mps 759 mmHg 82%
    21:00 +25°C° 0 mm 2 mps 759 mmHg 85%
    22:00 +25°C° 0 mm 2 mps 759 mmHg 89%
    23:00 +24°C° 0 mm 2 mps 759 mmHg 89%
    Show more